Location: Mat�lon
(46.2791°N, 7.1028°E)
Time: 06:55:53
(UTC+00:00)

Cosmos 1437 - Pass Details

Date: 18 September 2020
Orbit: 366 x 369 km, 81.2° (Epoch: 23 October)

Event Time Altitude Azimuth Distance (km) Brightness Sun altitude
Rises 18:10:38 0° 353° (N) 2,253 6.7 -6.7°
Reaches altitude 10° 18:12:40 10° 358° (N) 1,396 5.5 -7.0°
Maximum altitude 18:15:38 53° 77° (ENE) 474 2.7 -7.6°
Drops below altitude 10° 18:18:34 10° 156° (SSE) 1,377 5.0 -8.0°
Sets 18:20:34 0° 161° (SSE) 2,227 6.1 -8.4°
